Página principal
METAR-TAF:

METAR-TAF

Aeroportos :

Hillsdale Municipal Airport

Hillsdale, Michigan, Estados Unidos

latitude: 41-55-17N, longitude: 084-35-09W, altura: 360 m

Observação actual do tempo

O boletim foi feito há 12 minutos, às 22:15 UTC
Vento 8 kt de noroeste
Temperatura 9°C
Humidade 49%
Pressão 1023 hPa
Visibilidade: 16.1 km
Nuvens dispersasa uma altura de 6000 ft

METAR: KJYM 232215Z AUTO 31008KT 10SM SCT060 09/M01 A3021 RMK AO2

Hora: 18:27 (22:27 UTC)


TAF: em falta

Observações e previsões do tempo de mais de 4000 aeroportos (mensagens METAR e TAF).

As estações disponíveis são os pontos amarelos e vermelhos sobre o mapa.

Mova o rato sobre o mapa para ver o nome da estação.

Depois clique no ponto para visualizar as observações e previsões meteorológicas.

Para alterar o mapa : clique nos botões verdes com uma cruz preta para aumentar o zoom; no botão verde com uma pitada de zoom; ou nas setas verdes para mapas adjacentes.


METAR-TAF: